Regional Weather Roundup
Issued by NWS

Home | Current Version | Previous Version | Graphics & Text | Print | Product List | Glossary On
Versions: 1 2 3 4 5 6 7 8 9 10 11 12 13 14 15 16 17 18 19 20 21 22 23 24 25 26 27 28 29 30 31 32 33 34 35 36 37 38 39 40 41 42 43 44 45 46 47 48 49 50
000
ASUS43 KLMK 010410
RWRKY
KENTUCKY REGIONAL WEATHER ROUNDUP
NATIONAL WEATHER SERVICE LOUISVILLE KY
1200 AM EDT TUE SEP 01 2015

NOTE "FAIR" INDICATES FEW OR NO CLOUDS BELOW 12,000 FEET
WITH NO SIGNIFICANT WEATHER AND/OR OBSTRUCTIONS TO VISIBILITY.

KYZ001>023-026-027-061>063-070>075-010500-
WESTERN AND SOUTH CENTRAL KENTUCKY

CITY           SKY/WX    TMP DP  RH WIND       PRES   REMARKS
PADUCAH        CLEAR     71  67  87 CALM      30.08R
HENDERSON      CLEAR     70  64  83 CALM      30.08R
OWENSBORO      LGT RAIN  74  68  81 CALM      30.10S
HOPKINSVILLE   PTCLDY    72  66  82 NE2       30.10R
BOWLING GREEN  CLEAR     72  66  81 CALM      30.11S
GLASGOW        CLEAR     67  67 100 CALM      30.11S
$$

KYZ024-025-028>034-038-045-046-053-010500-
NORTH CENTRAL KENTUCKY

CITY           SKY/WX    TMP DP  RH WIND       PRES   REMARKS
LOUISVILLE/SDF CLEAR     78  65  63 CALM      30.10R
LOUISVILLE/LOU CLEAR     75  65  70 CALM      30.11S
FORT KNOX      CLEAR     67  64  91 CALM      30.10S
$$

KYZ035>037-039>044-047>052-055>060-089>105-010500-
NORTHEAST KENTUCKY

CITY           SKY/WX    TMP DP  RH WIND       PRES   REMARKS
LEXINGTON      CLEAR     70  64  81 CALM      30.13S
COVINGTON      CLEAR     72  66  81 CALM      30.11S
FRANKFORT      CLEAR     68  64  87 CALM      30.12R
$$

KYZ054-064>069-076>088-106>120-010500-
SOUTHEAST KENTUCKY

CITY           SKY/WX    TMP DP  RH WIND       PRES   REMARKS
JACKSON        CLEAR     71  64  78 CALM      30.15R
LONDON         CLEAR     69  63  81 CALM      30.14S
SOMERSET       CLEAR     66  66 100 CALM      30.14S
MIDDLESBORO    CLEAR     68  65  91 CALM      30.16R
MONTICELLO     CLEAR     65  65 100 CALM      30.16R FOG
$$



USA.gov is the U.S. government's official web portal to all federal, state and local government web resources and services.